Year,Month,Day,Hour,Minute,Value (Times are PST for windspeed in km/hr)
2018,12,20,00,00,4.80
2018,12,20,00,01,4.70
2018,12,20,00,02,1.60
2018,12,20,00,03,0.30
2018,12,20,00,04,0.10
2018,12,20,00,05,0.00
2018,12,20,00,06,0.00
2018,12,20,00,07,0.60
2018,12,20,00,08,0.20
2018,12,20,00,09,0.80
2018,12,20,00,10,0.60
2018,12,20,00,11,1.90
2018,12,20,00,12,2.80
2018,12,20,00,13,1.30
2018,12,20,00,14,0.00
2018,12,20,00,15,1.90
2018,12,20,00,16,0.00
2018,12,20,00,17,0.00
2018,12,20,00,18,0.10
2018,12,20,00,19,2.80
2018,12,20,00,20,0.50
2018,12,20,00,21,0.40
2018,12,20,00,22,0.70
2018,12,20,00,23,2.50
2018,12,20,00,24,5.40
2018,12,20,00,25,4.50
2018,12,20,00,26,5.00
2018,12,20,00,27,0.40
2018,12,20,00,28,2.70
2018,12,20,00,29,3.80
2018,12,20,00,30,4.30
2018,12,20,00,31,0.70
2018,12,20,00,32,0.20
2018,12,20,00,33,10.10
2018,12,20,00,34,5.60
2018,12,20,00,35,3.50
2018,12,20,00,36,2.60
2018,12,20,00,37,2.80
2018,12,20,00,38,2.60
2018,12,20,00,39,3.00
2018,12,20,00,40,6.00
2018,12,20,00,41,7.90
2018,12,20,00,42,9.40
2018,12,20,00,43,7.70
2018,12,20,00,44,8.00
2018,12,20,00,45,7.90
2018,12,20,00,46,4.60
2018,12,20,00,47,5.10
2018,12,20,00,48,5.90
2018,12,20,00,49,4.30
2018,12,20,00,50,1.50
2018,12,20,00,51,4.40
2018,12,20,00,52,4.70
2018,12,20,00,53,6.10
2018,12,20,00,54,11.30
2018,12,20,00,55,5.10
2018,12,20,00,56,6.90
2018,12,20,00,57,6.10
2018,12,20,00,58,9.70
2018,12,20,00,59,6.20
2018,12,20,01,00,6.30
2018,12,20,01,01,3.10
2018,12,20,01,02,5.20
2018,12,20,01,03,0.90
2018,12,20,01,04,5.40
2018,12,20,01,05,12.00
2018,12,20,01,06,5.70
2018,12,20,01,07,10.10
2018,12,20,01,08,9.20
2018,12,20,01,09,10.20
2018,12,20,01,10,13.80
2018,12,20,01,11,11.10
2018,12,20,01,12,13.00
2018,12,20,01,13,9.30
2018,12,20,01,14,10.70
2018,12,20,01,15,6.80
2018,12,20,01,16,8.00
2018,12,20,01,17,10.90
2018,12,20,01,18,10.80
2018,12,20,01,19,8.70
2018,12,20,01,20,6.30
2018,12,20,01,21,6.00
2018,12,20,01,22,6.40
2018,12,20,01,23,2.30
2018,12,20,01,24,6.30
2018,12,20,01,25,6.30
2018,12,20,01,26,9.00
2018,12,20,01,27,8.40
2018,12,20,01,28,10.40
2018,12,20,01,29,6.20
2018,12,20,01,30,4.20
2018,12,20,01,31,4.60
2018,12,20,01,32,4.20
2018,12,20,01,33,3.00
2018,12,20,01,34,6.10
2018,12,20,01,35,8.10
2018,12,20,01,36,6.60
2018,12,20,01,37,3.70
2018,12,20,01,38,1.80
2018,12,20,01,39,5.30
2018,12,20,01,40,5.70
2018,12,20,01,41,5.90
2018,12,20,01,42,5.30
2018,12,20,01,43,7.60
2018,12,20,01,44,9.50
2018,12,20,01,45,9.20
2018,12,20,01,46,8.40
2018,12,20,01,47,12.10
2018,12,20,01,48,6.40
2018,12,20,01,49,8.00
2018,12,20,01,50,8.10
2018,12,20,01,51,11.20
2018,12,20,01,52,11.60
2018,12,20,01,53,9.70
2018,12,20,01,54,14.50
2018,12,20,01,55,10.90
2018,12,20,01,56,19.80
2018,12,20,01,57,10.00
2018,12,20,01,58,11.80
2018,12,20,01,59,9.60
2018,12,20,02,00,6.90
2018,12,20,02,01,8.80
2018,12,20,02,02,6.30
2018,12,20,02,03,10.50
2018,12,20,02,04,6.90
2018,12,20,02,05,13.10
2018,12,20,02,06,12.70
2018,12,20,02,07,12.40
2018,12,20,02,08,8.30
2018,12,20,02,09,10.80
2018,12,20,02,10,10.80
2018,12,20,02,11,6.50
2018,12,20,02,12,9.30
2018,12,20,02,13,7.20
2018,12,20,02,14,5.40
2018,12,20,02,15,5.10
2018,12,20,02,16,7.10
2018,12,20,02,17,11.30
2018,12,20,02,18,7.40
2018,12,20,02,19,8.40
2018,12,20,02,20,9.40
2018,12,20,02,21,9.80
2018,12,20,02,22,8.30
2018,12,20,02,23,8.70
2018,12,20,02,24,6.40
2018,12,20,02,25,9.40
2018,12,20,02,26,10.80
2018,12,20,02,27,10.70
2018,12,20,02,28,9.70
2018,12,20,02,29,9.90
2018,12,20,02,30,10.50
2018,12,20,02,31,5.30
2018,12,20,02,32,4.60
2018,12,20,02,33,6.00
2018,12,20,02,34,6.20
2018,12,20,02,35,10.70
2018,12,20,02,36,10.50
2018,12,20,02,37,6.80
2018,12,20,02,38,8.10
2018,12,20,02,39,17.90
2018,12,20,02,40,8.20
2018,12,20,02,41,4.90
2018,12,20,02,42,5.80
2018,12,20,02,43,8.10
2018,12,20,02,44,11.30
2018,12,20,02,45,11.30
2018,12,20,02,46,8.80
2018,12,20,02,47,10.50
2018,12,20,02,48,10.80
2018,12,20,02,49,10.60
2018,12,20,02,50,11.50
2018,12,20,02,51,12.30
2018,12,20,02,52,12.80
2018,12,20,02,53,8.50
2018,12,20,02,54,6.10
2018,12,20,02,55,10.60
2018,12,20,02,56,8.30
2018,12,20,02,57,5.50
2018,12,20,02,58,10.50
2018,12,20,02,59,8.00
2018,12,20,03,00,9.90
2018,12,20,03,01,10.10
2018,12,20,03,02,7.20
2018,12,20,03,03,6.70
2018,12,20,03,04,9.70
2018,12,20,03,05,10.90
2018,12,20,03,06,5.30
2018,12,20,03,07,19.30
2018,12,20,03,08,14.90
2018,12,20,03,09,12.60
2018,12,20,03,10,10.20
2018,12,20,03,11,15.80
2018,12,20,03,12,21.00
2018,12,20,03,13,12.10
2018,12,20,03,14,8.60
2018,12,20,03,15,5.80
2018,12,20,03,16,9.20
2018,12,20,03,17,11.30
2018,12,20,03,18,6.10
2018,12,20,03,19,7.80
2018,12,20,03,20,11.40
2018,12,20,03,21,8.80
2018,12,20,03,22,13.20
2018,12,20,03,23,7.90
2018,12,20,03,24,6.30
2018,12,20,03,25,8.60
2018,12,20,03,26,7.00
2018,12,20,03,27,6.50
2018,12,20,03,28,4.00
2018,12,20,03,29,9.00
2018,12,20,03,30,6.40
2018,12,20,03,31,5.60
2018,12,20,03,32,12.40
2018,12,20,03,33,6.10
2018,12,20,03,34,1.10
2018,12,20,03,35,0.00
2018,12,20,03,36,2.40
2018,12,20,03,37,0.60
2018,12,20,03,38,4.10
2018,12,20,03,39,3.90
2018,12,20,03,40,3.50
2018,12,20,03,41,4.40
2018,12,20,03,42,0.30
2018,12,20,03,43,4.00
2018,12,20,03,44,0.40
2018,12,20,03,45,2.50
2018,12,20,03,46,3.60
2018,12,20,03,47,9.80
2018,12,20,03,48,6.80
2018,12,20,03,49,7.50
2018,12,20,03,50,5.90
2018,12,20,03,51,4.70
2018,12,20,03,52,7.10
2018,12,20,03,53,2.40
2018,12,20,03,54,0.20
2018,12,20,03,55,8.10
2018,12,20,03,56,6.10
2018,12,20,03,57,5.70
2018,12,20,03,58,5.80
2018,12,20,03,59,6.60
2018,12,20,04,00,5.10
2018,12,20,04,01,5.70
2018,12,20,04,02,9.10
2018,12,20,04,03,5.00
2018,12,20,04,04,4.50
2018,12,20,04,08,3.90
2018,12,20,04,09,3.40
2018,12,20,04,10,0.50
2018,12,20,04,11,0.20
2018,12,20,04,12,0.50
2018,12,20,04,13,0.00
2018,12,20,04,14,5.20
2018,12,20,04,15,4.80
2018,12,20,04,16,2.40
2018,12,20,04,17,0.50
2018,12,20,04,18,3.40
2018,12,20,04,19,4.10
2018,12,20,04,20,5.00
2018,12,20,04,21,2.40
2018,12,20,04,22,7.50
2018,12,20,04,23,4.80
2018,12,20,04,24,2.40
2018,12,20,04,25,1.00
2018,12,20,04,26,0.90
2018,12,20,04,27,1.70
2018,12,20,04,28,7.20
2018,12,20,04,29,7.20
2018,12,20,04,30,8.50
2018,12,20,04,31,11.40
2018,12,20,04,32,9.30
2018,12,20,04,33,14.10
2018,12,20,04,34,11.10
2018,12,20,04,35,4.10
2018,12,20,04,36,5.20
2018,12,20,04,37,10.20
2018,12,20,04,38,13.80
2018,12,20,04,39,8.00
2018,12,20,04,40,4.50
2018,12,20,04,41,9.10
2018,12,20,04,42,8.60
2018,12,20,04,43,8.80
2018,12,20,04,44,5.70
2018,12,20,04,45,2.70
2018,12,20,04,46,6.80
2018,12,20,04,47,8.40
2018,12,20,04,48,5.30
2018,12,20,04,49,7.00
2018,12,20,04,50,6.00
2018,12,20,04,51,3.10
2018,12,20,04,52,3.30
2018,12,20,04,53,2.60
2018,12,20,04,54,8.00
2018,12,20,04,55,7.90
2018,12,20,04,56,7.10
2018,12,20,04,57,5.60
2018,12,20,04,58,11.00
2018,12,20,04,59,12.60
2018,12,20,05,00,9.20
2018,12,20,05,01,5.10
2018,12,20,05,02,8.10
2018,12,20,05,03,7.60
2018,12,20,05,04,6.70
2018,12,20,05,05,8.80
2018,12,20,05,06,6.50
2018,12,20,05,07,6.90
2018,12,20,05,08,8.50
2018,12,20,05,09,8.50
2018,12,20,05,10,11.50
2018,12,20,05,11,7.80
2018,12,20,05,12,7.00
2018,12,20,05,13,5.30
2018,12,20,05,14,8.10
2018,12,20,05,15,11.00
2018,12,20,05,16,13.00
2018,12,20,05,17,7.10
2018,12,20,05,18,8.70
2018,12,20,05,19,10.40
2018,12,20,05,20,12.40
2018,12,20,05,21,12.30
2018,12,20,05,22,10.80
2018,12,20,05,23,16.20
2018,12,20,05,24,14.00
2018,12,20,05,25,17.80
2018,12,20,05,26,14.20
2018,12,20,05,27,15.90
2018,12,20,05,28,12.90
2018,12,20,05,29,23.30
2018,12,20,05,30,15.30
2018,12,20,05,31,14.70
2018,12,20,05,32,10.80
2018,12,20,05,33,12.30
2018,12,20,05,34,16.50
2018,12,20,05,35,12.90
2018,12,20,05,36,12.60
2018,12,20,05,37,11.30
2018,12,20,05,38,9.10
2018,12,20,05,39,8.40
2018,12,20,05,40,13.40
2018,12,20,05,41,11.90
2018,12,20,05,42,10.80
2018,12,20,05,43,8.00
2018,12,20,05,44,10.60
2018,12,20,05,45,13.20
2018,12,20,05,46,14.30
2018,12,20,05,47,16.70
2018,12,20,05,48,16.90
2018,12,20,05,49,22.30
2018,12,20,05,50,17.40
2018,12,20,05,51,15.20
2018,12,20,05,52,17.60
2018,12,20,05,53,15.80
2018,12,20,05,54,16.60
2018,12,20,05,55,15.50
2018,12,20,05,56,18.00
2018,12,20,05,57,18.20
2018,12,20,05,58,16.30
2018,12,20,05,59,14.90
2018,12,20,06,00,17.80
2018,12,20,06,01,15.50
2018,12,20,06,02,16.00
2018,12,20,06,03,16.30
2018,12,20,06,04,14.10
2018,12,20,06,05,13.80
2018,12,20,06,06,17.20
2018,12,20,06,07,13.60
2018,12,20,06,08,14.70
2018,12,20,06,09,17.80
2018,12,20,06,10,14.90
2018,12,20,06,11,13.00
2018,12,20,06,12,18.00
2018,12,20,06,13,17.60
2018,12,20,06,14,24.60
2018,12,20,06,15,15.40
2018,12,20,06,16,17.30
2018,12,20,06,17,15.10
2018,12,20,06,18,16.50
2018,12,20,06,19,12.00
2018,12,20,06,20,11.00
2018,12,20,06,21,12.10
2018,12,20,06,22,16.30
2018,12,20,06,23,17.90
2018,12,20,06,24,17.50
2018,12,20,06,25,13.80
2018,12,20,06,26,16.00
2018,12,20,06,27,18.70
2018,12,20,06,28,17.60
2018,12,20,06,29,16.90
2018,12,20,06,30,23.30
2018,12,20,06,31,18.50
2018,12,20,06,32,22.30
2018,12,20,06,33,18.20
2018,12,20,06,34,16.50
2018,12,20,06,35,15.10
2018,12,20,06,36,17.80
2018,12,20,06,37,17.90
2018,12,20,06,38,22.40
2018,12,20,06,39,17.40
2018,12,20,06,40,14.70
2018,12,20,06,41,19.50
2018,12,20,06,42,21.00
2018,12,20,06,43,19.50
2018,12,20,06,44,19.80
2018,12,20,06,45,21.40
2018,12,20,06,46,22.20
2018,12,20,06,47,20.20
2018,12,20,06,48,17.90
2018,12,20,06,49,16.40
2018,12,20,06,50,14.20
2018,12,20,06,51,14.70
2018,12,20,06,52,21.40
2018,12,20,06,53,19.70
2018,12,20,06,54,16.80
2018,12,20,06,55,18.80
2018,12,20,06,56,18.10
2018,12,20,06,57,18.60
2018,12,20,06,58,16.80
2018,12,20,06,59,17.80
2018,12,20,07,00,19.20
2018,12,20,07,01,19.20
2018,12,20,07,02,17.80
2018,12,20,07,03,17.40
2018,12,20,07,04,16.00
2018,12,20,07,05,21.90
2018,12,20,07,06,18.20
2018,12,20,07,07,17.60
2018,12,20,07,08,18.30
2018,12,20,07,09,17.30
2018,12,20,07,10,15.00
2018,12,20,07,11,19.40
2018,12,20,07,12,19.40
2018,12,20,07,13,14.90
2018,12,20,07,14,14.30
2018,12,20,07,15,15.90
2018,12,20,07,16,18.20
2018,12,20,07,17,17.10
2018,12,20,07,18,16.70
2018,12,20,07,19,18.50
2018,12,20,07,20,23.50
2018,12,20,07,21,17.40
2018,12,20,07,22,17.70
2018,12,20,07,23,17.80
2018,12,20,07,24,16.60
2018,12,20,07,25,16.10
2018,12,20,07,26,20.10
2018,12,20,07,27,18.00
2018,12,20,07,28,17.90
2018,12,20,07,29,17.90
2018,12,20,07,30,20.30
2018,12,20,07,31,20.70
2018,12,20,07,32,16.80
2018,12,20,07,33,16.40
2018,12,20,07,34,16.50
2018,12,20,07,35,19.30
2018,12,20,07,36,17.10
2018,12,20,07,37,19.00
2018,12,20,07,38,18.60
2018,12,20,07,39,16.20
2018,12,20,07,40,15.40
2018,12,20,07,41,21.70
2018,12,20,07,42,23.00
2018,12,20,07,43,18.50
2018,12,20,07,44,15.80
2018,12,20,07,45,17.80
2018,12,20,07,46,19.60
2018,12,20,07,47,17.60
2018,12,20,07,48,21.10
2018,12,20,07,49,20.80
2018,12,20,07,50,19.60
2018,12,20,07,51,19.90
2018,12,20,07,52,18.40
2018,12,20,07,53,17.20
2018,12,20,07,54,16.80
2018,12,20,07,55,16.50
2018,12,20,07,56,18.90
2018,12,20,07,57,14.30
2018,12,20,07,58,15.90
2018,12,20,07,59,16.40
2018,12,20,08,00,15.30
2018,12,20,08,01,14.00
2018,12,20,08,02,17.80
2018,12,20,08,03,14.20
2018,12,20,08,04,14.80
2018,12,20,08,05,17.30
2018,12,20,08,06,14.70
2018,12,20,08,07,15.80
2018,12,20,08,08,13.90
2018,12,20,08,09,12.10
2018,12,20,08,10,14.00
2018,12,20,08,11,14.50
2018,12,20,08,12,20.40
2018,12,20,08,13,16.50
2018,12,20,08,14,12.30
2018,12,20,08,15,16.70
2018,12,20,08,16,17.50
2018,12,20,08,17,17.80
2018,12,20,08,18,16.90
2018,12,20,08,19,13.20
2018,12,20,08,20,19.50
2018,12,20,08,21,15.50
2018,12,20,08,22,21.70
2018,12,20,08,23,18.40
2018,12,20,08,24,15.20
2018,12,20,08,25,21.20
2018,12,20,08,26,15.00
2018,12,20,08,27,17.70
2018,12,20,08,28,14.20
2018,12,20,08,29,12.10
2018,12,20,08,30,16.50
2018,12,20,08,31,12.80
2018,12,20,08,32,16.90
2018,12,20,08,33,15.20
2018,12,20,08,34,14.80
2018,12,20,08,35,17.50
2018,12,20,08,36,16.20
2018,12,20,08,37,14.80
2018,12,20,08,38,15.80
2018,12,20,08,39,14.40
2018,12,20,08,40,19.20
2018,12,20,08,41,15.10
2018,12,20,08,42,13.30
2018,12,20,08,43,11.70
2018,12,20,08,44,11.20
2018,12,20,08,45,12.50
2018,12,20,08,46,15.40
2018,12,20,08,47,15.00
2018,12,20,08,48,16.50
2018,12,20,08,49,12.80
2018,12,20,08,50,12.70
2018,12,20,08,51,12.90
2018,12,20,08,52,15.10
2018,12,20,08,53,15.60
2018,12,20,08,54,15.60
2018,12,20,08,55,16.40
2018,12,20,08,56,12.80
2018,12,20,08,57,18.50
2018,12,20,08,58,15.20
2018,12,20,08,59,16.20
2018,12,20,09,00,14.80
2018,12,20,09,01,16.40
2018,12,20,09,02,18.70
2018,12,20,09,03,13.70
2018,12,20,09,04,12.70
2018,12,20,09,05,15.40
2018,12,20,09,06,19.10
2018,12,20,09,07,15.30
2018,12,20,09,08,15.50
2018,12,20,09,09,15.40
2018,12,20,09,10,16.70
2018,12,20,09,11,15.40
2018,12,20,09,12,15.10
2018,12,20,09,13,13.60
2018,12,20,09,14,10.20
2018,12,20,09,15,15.30
2018,12,20,09,16,14.30
2018,12,20,09,17,11.60
2018,12,20,09,18,12.30
2018,12,20,09,19,8.30
2018,12,20,09,20,12.40
2018,12,20,09,21,10.40
2018,12,20,09,22,14.00
2018,12,20,09,23,13.10
2018,12,20,09,24,10.90
2018,12,20,09,25,12.00
2018,12,20,09,26,10.80
2018,12,20,09,27,11.20
2018,12,20,09,28,9.90
2018,12,20,09,29,9.30
2018,12,20,09,30,7.90
2018,12,20,09,31,11.50
2018,12,20,09,32,13.80
2018,12,20,09,33,12.80
2018,12,20,09,34,11.10
2018,12,20,09,35,12.40
2018,12,20,09,36,10.90
2018,12,20,09,37,10.30
2018,12,20,09,38,10.70
2018,12,20,09,39,7.20
2018,12,20,09,40,6.00
2018,12,20,09,41,13.10
2018,12,20,09,42,14.90
2018,12,20,09,43,16.70
2018,12,20,09,44,12.80
2018,12,20,09,45,7.90
2018,12,20,09,46,6.50
2018,12,20,09,47,3.10
2018,12,20,09,48,9.70
2018,12,20,09,49,11.90
2018,12,20,09,50,8.90
2018,12,20,09,51,8.80
2018,12,20,09,52,10.40
2018,12,20,09,53,10.40
2018,12,20,09,54,13.90
2018,12,20,09,55,11.40
2018,12,20,09,56,9.30
2018,12,20,09,57,8.90
2018,12,20,09,58,13.60
2018,12,20,09,59,13.60
2018,12,20,10,00,10.90
2018,12,20,10,01,11.40
2018,12,20,10,02,10.50
2018,12,20,10,03,7.50
2018,12,20,10,04,2.40
2018,12,20,10,05,5.10
2018,12,20,10,06,0.60
2018,12,20,10,07,0.50
2018,12,20,10,08,2.70
2018,12,20,10,09,2.30
2018,12,20,10,10,0.30
2018,12,20,10,11,2.10
2018,12,20,10,12,0.30
2018,12,20,10,13,1.50
2018,12,20,10,14,2.60
2018,12,20,10,15,4.30
2018,12,20,10,16,3.10
2018,12,20,10,17,1.20
2018,12,20,10,18,4.30
2018,12,20,10,19,7.80
2018,12,20,10,20,11.70
2018,12,20,10,21,9.80
2018,12,20,10,22,10.80
2018,12,20,10,23,9.70
2018,12,20,10,24,8.50
2018,12,20,10,25,7.10
2018,12,20,10,26,6.40
2018,12,20,10,27,5.80
2018,12,20,10,28,5.70
2018,12,20,10,29,6.20
2018,12,20,10,30,3.80
2018,12,20,10,31,4.20
2018,12,20,10,32,3.60
2018,12,20,10,33,1.80
2018,12,20,10,34,0.00
2018,12,20,10,35,0.00
2018,12,20,10,36,0.00
2018,12,20,10,37,0.40
2018,12,20,10,38,4.50
2018,12,20,10,39,4.10
2018,12,20,10,40,0.30
2018,12,20,10,41,0.20
2018,12,20,10,42,3.40
2018,12,20,10,43,3.00
2018,12,20,10,44,0.90
2018,12,20,10,45,1.30
2018,12,20,10,46,0.00
2018,12,20,10,47,0.00
2018,12,20,10,48,0.00
2018,12,20,10,49,0.00
2018,12,20,10,50,0.20
2018,12,20,10,51,1.40
2018,12,20,10,52,1.60
2018,12,20,10,53,1.60
2018,12,20,10,54,4.30
2018,12,20,10,55,5.30
2018,12,20,10,56,1.10
2018,12,20,10,57,3.60
2018,12,20,10,58,8.30
2018,12,20,10,59,7.10
2018,12,20,11,00,5.80
2018,12,20,11,01,3.60
2018,12,20,11,02,4.00
2018,12,20,11,03,2.50
2018,12,20,11,04,2.90
2018,12,20,11,05,9.50
2018,12,20,11,06,10.60
2018,12,20,11,07,2.60
2018,12,20,11,08,3.80
2018,12,20,11,09,4.10
2018,12,20,11,10,6.80
2018,12,20,11,11,3.80
2018,12,20,11,12,5.80
2018,12,20,11,13,12.10
2018,12,20,11,14,8.20
2018,12,20,11,15,10.60
2018,12,20,11,16,11.90
2018,12,20,11,17,12.40
2018,12,20,11,18,11.80
2018,12,20,11,19,7.80
2018,12,20,11,20,6.70
2018,12,20,11,21,8.00
2018,12,20,11,22,7.90
2018,12,20,11,23,7.00
2018,12,20,11,24,10.40
2018,12,20,11,25,14.40
2018,12,20,11,26,6.80
2018,12,20,11,27,9.90
2018,12,20,11,28,8.50
2018,12,20,11,29,7.90
2018,12,20,11,30,1.90
2018,12,20,11,31,11.10
2018,12,20,11,32,8.10
2018,12,20,11,33,14.60
2018,12,20,11,34,12.20
2018,12,20,11,35,8.70
2018,12,20,11,36,10.80
2018,12,20,11,37,17.20
2018,12,20,11,38,9.40
2018,12,20,11,39,9.70
2018,12,20,11,40,8.50
2018,12,20,11,41,12.00
2018,12,20,11,42,4.90
2018,12,20,11,43,8.30
2018,12,20,11,44,11.90
2018,12,20,11,45,7.80
2018,12,20,11,46,7.50
2018,12,20,11,47,7.30
2018,12,20,11,48,8.00
2018,12,20,11,49,7.30
2018,12,20,11,50,8.00
2018,12,20,11,51,9.40
2018,12,20,11,52,15.00
2018,12,20,11,53,12.30
2018,12,20,11,54,14.70
2018,12,20,11,55,10.90
2018,12,20,11,56,11.30
2018,12,20,11,57,9.90
2018,12,20,11,58,20.20
2018,12,20,11,59,15.50
2018,12,20,12,00,5.50
2018,12,20,12,01,12.60
2018,12,20,12,02,11.30
2018,12,20,12,03,14.20
2018,12,20,12,04,12.80
2018,12,20,12,05,16.20
2018,12,20,12,06,13.80
2018,12,20,12,07,23.70
2018,12,20,12,08,14.40
2018,12,20,12,09,10.50
2018,12,20,12,10,17.90
2018,12,20,12,11,9.40
2018,12,20,12,12,13.80
2018,12,20,12,13,10.70
2018,12,20,12,14,5.90
2018,12,20,12,15,3.60
2018,12,20,12,16,7.20
2018,12,20,12,17,7.30
2018,12,20,12,18,12.70
2018,12,20,12,19,9.90
2018,12,20,12,20,12.70
2018,12,20,12,21,10.40
2018,12,20,12,22,9.40
2018,12,20,12,23,6.90
2018,12,20,12,24,12.70
2018,12,20,12,25,20.60
2018,12,20,12,26,19.80
2018,12,20,12,27,5.80
2018,12,20,12,28,12.50
2018,12,20,12,29,11.10
2018,12,20,12,30,21.20
2018,12,20,12,31,18.50
2018,12,20,12,32,19.30
2018,12,20,12,33,17.20
2018,12,20,12,34,10.00
2018,12,20,12,35,15.20
2018,12,20,12,36,15.40
2018,12,20,12,37,17.10
2018,12,20,12,38,9.30
2018,12,20,12,39,9.00
2018,12,20,12,40,13.60
2018,12,20,12,41,18.40
2018,12,20,12,42,7.70
2018,12,20,13,21,4.60
2018,12,20,13,22,5.70
2018,12,20,13,23,7.10
2018,12,20,13,24,5.80
2018,12,20,13,25,4.00
2018,12,20,13,26,9.90
2018,12,20,13,27,11.80
2018,12,20,13,28,11.20
2018,12,20,13,29,17.10
2018,12,20,13,30,7.90
2018,12,20,13,31,19.10
2018,12,20,13,32,17.30
2018,12,20,13,33,23.40
2018,12,20,13,34,10.10
2018,12,20,13,35,17.50
2018,12,20,13,36,19.20
2018,12,20,13,37,6.00
2018,12,20,13,38,10.90
2018,12,20,13,39,16.20
2018,12,20,13,40,19.50
2018,12,20,13,41,16.60
2018,12,20,13,42,18.30
2018,12,20,13,43,12.80
2018,12,20,13,44,24.70
2018,12,20,13,45,14.90
2018,12,20,13,46,13.30
2018,12,20,13,47,12.90
2018,12,20,13,48,11.70
2018,12,20,13,49,8.70
2018,12,20,13,50,9.10
2018,12,20,13,51,22.70
2018,12,20,13,52,9.70
2018,12,20,13,53,21.70
2018,12,20,13,54,18.30
2018,12,20,13,55,12.30
2018,12,20,13,56,18.20
2018,12,20,13,57,31.00
2018,12,20,13,58,16.70
2018,12,20,13,59,14.60
2018,12,20,14,00,21.10
2018,12,20,14,01,19.60
2018,12,20,14,02,6.30
2018,12,20,14,03,12.20
2018,12,20,14,04,15.90
2018,12,20,14,05,23.50
2018,12,20,14,06,14.60
2018,12,20,14,07,20.20
2018,12,20,14,08,25.10
2018,12,20,14,09,23.80
2018,12,20,14,10,14.20
2018,12,20,14,11,17.30
2018,12,20,14,12,14.50
2018,12,20,14,13,10.10
2018,12,20,14,14,23.80
2018,12,20,14,15,19.20
2018,12,20,14,16,12.90
2018,12,20,14,17,19.90
2018,12,20,14,18,22.70
2018,12,20,14,19,16.90
2018,12,20,14,20,19.40
2018,12,20,14,21,15.50
2018,12,20,14,22,17.90
2018,12,20,14,23,20.80
2018,12,20,14,24,12.10
2018,12,20,14,25,17.70
2018,12,20,14,26,12.80
2018,12,20,14,27,17.30
2018,12,20,14,28,17.10
2018,12,20,14,29,21.10
2018,12,20,14,30,11.30
2018,12,20,14,31,13.60
2018,12,20,14,32,15.40
2018,12,20,14,33,19.20
2018,12,20,14,34,17.10
2018,12,20,14,35,14.30
2018,12,20,14,36,11.50
2018,12,20,14,37,25.10
2018,12,20,14,38,12.70
2018,12,20,14,39,21.90
2018,12,20,14,40,12.40
2018,12,20,14,41,20.90
2018,12,20,14,42,22.00
2018,12,20,14,43,14.30
2018,12,20,14,44,30.60
2018,12,20,14,45,19.60
2018,12,20,14,46,11.30
2018,12,20,14,47,15.70
2018,12,20,14,48,14.60
2018,12,20,14,49,20.80
2018,12,20,14,50,13.20
2018,12,20,14,51,8.30
2018,12,20,14,52,29.40
2018,12,20,14,53,15.10
2018,12,20,14,54,12.90
2018,12,20,14,55,11.00
2018,12,20,14,56,12.90
2018,12,20,14,57,16.70
2018,12,20,14,58,12.40
2018,12,20,14,59,8.50
2018,12,20,15,00,19.10
2018,12,20,15,01,19.30
2018,12,20,15,02,11.70
2018,12,20,15,03,13.20
2018,12,20,15,04,10.20
2018,12,20,15,05,20.20
2018,12,20,15,06,20.50
2018,12,20,15,07,18.40
2018,12,20,15,08,22.50
2018,12,20,15,09,19.00
2018,12,20,15,10,18.70
2018,12,20,15,11,14.60
2018,12,20,15,12,12.20
2018,12,20,15,13,14.20
2018,12,20,15,14,16.30
2018,12,20,15,15,17.90
2018,12,20,15,16,19.10
2018,12,20,15,17,9.70
2018,12,20,15,18,14.00
2018,12,20,15,19,16.70
2018,12,20,15,20,18.80
2018,12,20,15,21,12.60
2018,12,20,15,22,13.80
2018,12,20,15,23,23.50
2018,12,20,15,24,23.80
2018,12,20,15,25,15.20
2018,12,20,15,26,20.80
2018,12,20,15,27,17.60
2018,12,20,15,28,10.50
2018,12,20,15,29,13.20
2018,12,20,15,30,24.30
2018,12,20,15,31,21.30
2018,12,20,15,32,16.20
2018,12,20,15,33,22.00
2018,12,20,15,34,16.90
2018,12,20,15,35,14.20
2018,12,20,15,36,18.60
2018,12,20,15,37,23.30
2018,12,20,15,38,19.90
2018,12,20,15,39,12.50
2018,12,20,15,40,14.10
2018,12,20,15,41,12.10
2018,12,20,15,42,16.90
2018,12,20,15,43,12.60
2018,12,20,15,44,27.40
2018,12,20,15,45,17.70
2018,12,20,15,46,12.80
2018,12,20,15,47,6.40
2018,12,20,15,48,9.70
2018,12,20,15,49,10.40
2018,12,20,15,50,21.00
2018,12,20,15,51,22.20
2018,12,20,15,52,19.70
2018,12,20,15,53,15.00
2018,12,20,15,54,11.30
2018,12,20,15,55,9.90
2018,12,20,15,56,9.90
2018,12,20,15,57,11.80
2018,12,20,15,58,8.50
2018,12,20,15,59,8.70
2018,12,20,16,00,7.80
2018,12,20,16,01,12.60
2018,12,20,16,02,6.30
2018,12,20,16,03,4.50
2018,12,20,16,04,10.60
2018,12,20,16,05,12.20
2018,12,20,16,06,16.90
2018,12,20,16,07,14.60
2018,12,20,16,08,6.20
2018,12,20,16,09,7.20
2018,12,20,16,10,9.10
2018,12,20,16,11,11.30
2018,12,20,16,12,16.00
2018,12,20,16,13,13.40
2018,12,20,16,14,8.70
2018,12,20,16,15,4.40
2018,12,20,16,16,9.90
2018,12,20,16,17,13.70
2018,12,20,16,18,11.70
2018,12,20,16,19,11.60
2018,12,20,16,20,14.40
2018,12,20,16,21,14.80
2018,12,20,16,22,15.40
2018,12,20,16,23,17.10
2018,12,20,16,24,14.10
2018,12,20,16,25,10.50
2018,12,20,16,26,8.50
2018,12,20,16,27,17.50
2018,12,20,16,28,17.10
2018,12,20,16,29,13.00
2018,12,20,16,30,14.80
2018,12,20,16,31,15.50
2018,12,20,16,32,14.80
2018,12,20,16,33,18.40
2018,12,20,16,34,20.10
2018,12,20,16,35,25.00
2018,12,20,16,36,22.00
2018,12,20,16,37,19.30
2018,12,20,16,38,16.40
2018,12,20,16,39,19.20
2018,12,20,16,40,17.40
2018,12,20,16,41,12.70
2018,12,20,16,42,20.90
2018,12,20,16,43,19.50
2018,12,20,16,44,25.60
2018,12,20,16,45,23.10
2018,12,20,16,46,29.90
2018,12,20,16,47,17.40
2018,12,20,16,48,23.50
2018,12,20,16,49,35.50
2018,12,20,16,50,19.70
2018,12,20,16,51,15.50
2018,12,20,16,52,14.80
2018,12,20,16,53,10.00
2018,12,20,16,54,18.60
2018,12,20,16,55,19.30
2018,12,20,16,56,14.00
2018,12,20,16,57,11.70
2018,12,20,16,58,13.30
2018,12,20,16,59,12.80
2018,12,20,17,00,10.40
2018,12,20,17,01,9.90
2018,12,20,17,02,17.20
2018,12,20,17,03,10.50
2018,12,20,17,04,8.00
2018,12,20,17,05,4.80
2018,12,20,17,06,3.10
2018,12,20,17,07,13.70
2018,12,20,17,08,7.40
2018,12,20,17,09,9.70
2018,12,20,17,10,6.00
2018,12,20,17,11,9.90
2018,12,20,17,12,6.70
2018,12,20,17,13,3.20
2018,12,20,17,14,2.70
2018,12,20,17,15,4.80
2018,12,20,17,16,8.70
2018,12,20,17,17,7.00
2018,12,20,17,18,13.40
2018,12,20,17,19,9.00
2018,12,20,17,20,10.40
2018,12,20,17,21,7.10
2018,12,20,17,22,4.70
2018,12,20,17,23,2.40
2018,12,20,17,24,3.90
2018,12,20,17,25,8.40
2018,12,20,17,26,6.50
2018,12,20,17,27,3.80
2018,12,20,17,28,11.80
2018,12,20,17,29,11.90
2018,12,20,17,30,5.20
2018,12,20,17,31,6.40
2018,12,20,17,32,10.50
2018,12,20,17,33,14.70
2018,12,20,17,34,11.40
2018,12,20,17,35,8.70
2018,12,20,17,36,9.70
2018,12,20,17,37,10.00
2018,12,20,17,38,3.10
2018,12,20,17,39,10.40
2018,12,20,17,40,9.90
2018,12,20,17,41,2.90
2018,12,20,17,42,4.70
2018,12,20,17,43,10.90
2018,12,20,17,44,8.20
2018,12,20,17,45,11.80
2018,12,20,17,46,11.70
2018,12,20,17,47,9.60
2018,12,20,17,48,8.40
2018,12,20,17,49,5.70
2018,12,20,17,50,3.10
2018,12,20,17,51,7.80
2018,12,20,17,52,3.60
2018,12,20,17,53,2.70
2018,12,20,17,54,3.00
2018,12,20,17,55,4.40
2018,12,20,17,56,5.10
2018,12,20,17,57,6.70
2018,12,20,17,58,3.80
2018,12,20,17,59,12.30
2018,12,20,18,00,6.80
2018,12,20,18,01,7.20
2018,12,20,18,02,4.40
2018,12,20,18,03,1.90
2018,12,20,18,04,9.40
2018,12,20,18,05,9.60
2018,12,20,18,06,7.50
2018,12,20,18,07,9.20
2018,12,20,18,08,4.20
2018,12,20,18,09,5.20
2018,12,20,18,10,6.10
2018,12,20,18,11,12.30
2018,12,20,18,12,11.80
2018,12,20,18,13,8.90
2018,12,20,18,14,8.30
2018,12,20,18,15,8.00
2018,12,20,18,16,7.30
2018,12,20,18,17,10.50
2018,12,20,18,18,8.10
2018,12,20,18,19,7.10
2018,12,20,18,20,7.80